FDX7 FAOR-HKJK

Flight info

Callsign FDX7
Flight time N/A
Altitude 39000
Route VASUR3A VASUR UZ23 IMKUP UQ1 TAVLA UM215 VBU UL437 VHA UP312 LOSIN DCT EPTAN UP312 EVATO EVATO2P
Aircraft B77L/H-SDE1E2E3FGHIJ2J3J4J5M1RWXY/LB1D1

Departure

Time N/A
Airport O.R. Tambo International Airport (FAOR)

Arrival

Time 2026-04-27 17:10
Airport Jomo Kenyatta International Airport (HKJK)
Time Latitude Longitude Altitude Speed Heading
2026-04-27 16:10 2.05136 42.24711 38897 ft 498 kts 238°
2026-04-27 16:10 2.01506 42.18841 38893 ft 500 kts 237°
2026-04-27 16:11 1.95925 42.10051 38892 ft 500 kts 236°
2026-04-27 16:12 1.90314 42.01264 38884 ft 499 kts 237°
2026-04-27 16:13 1.84725 41.92494 38889 ft 497 kts 236°
2026-04-27 16:13 1.79173 41.83780 38887 ft 496 kts 236°
2026-04-27 16:14 1.71751 41.72130 38888 ft 497 kts 236°
2026-04-27 16:15 1.64922 41.61416 38893 ft 499 kts 236°
2026-04-27 16:16 1.56834 41.48727 38884 ft 501 kts 236°
2026-04-27 16:17 1.49964 41.37951 38886 ft 502 kts 236°
2026-04-27 16:18 1.42467 41.26192 38898 ft 502 kts 236°
2026-04-27 16:19 1.38713 41.20306 38874 ft 501 kts 236°
2026-04-27 16:20 1.31575 41.08404 38871 ft 499 kts 252°
2026-04-27 16:20 1.31532 41.01554 38891 ft 500 kts 285°
2026-04-27 16:21 1.32780 40.98315 38888 ft 498 kts 296°
2026-04-27 16:22 1.38796 40.85760 38889 ft 504 kts 295°
2026-04-27 16:22 1.43220 40.76241 38882 ft 505 kts 295°
2026-04-27 16:23 1.47647 40.66657 38882 ft 505 kts 295°
2026-04-27 16:24 1.50578 40.60325 38884 ft 504 kts 295°
2026-04-27 16:25 1.56467 40.47601 38889 ft 503 kts 295°
2026-04-27 16:26 1.62320 40.34952 38885 ft 501 kts 295°
2026-04-27 16:27 1.68189 40.22271 38842 ft 501 kts 295°
2026-04-27 16:27 1.71998 40.12629 38838 ft 500 kts 276°
2026-04-27 16:28 1.70888 40.05838 38846 ft 499 kts 245°
2026-04-27 16:28 1.66869 40.00344 38852 ft 493 kts 222°
2026-04-27 16:29 1.59323 39.93284 38850 ft 496 kts 222°
2026-04-27 16:31 1.42577 39.77165 38876 ft 468 kts 223°
2026-04-27 16:31 1.37159 39.71912 38882 ft 464 kts 223°
2026-04-27 16:32 1.30984 39.65931 38879 ft 463 kts 223°
2026-04-27 16:33 1.23258 39.58448 38884 ft 467 kts 223°
2026-04-27 16:33 1.18571 39.53909 38879 ft 469 kts 223°
2026-04-27 16:34 1.14659 39.50119 38875 ft 471 kts 223°
2026-04-27 16:34 1.09961 39.45570 38878 ft 473 kts 223°
2026-04-27 16:35 1.05223 39.40982 38877 ft 474 kts 223°
2026-04-27 16:36 0.98124 39.34107 38876 ft 473 kts 223°
2026-04-27 16:36 0.93402 39.29535 38877 ft 472 kts 223°
2026-04-27 16:37 0.88713 39.24995 38876 ft 471 kts 223°
2026-04-27 16:37 0.83998 39.20430 38874 ft 471 kts 223°
2026-04-27 16:38 0.79276 39.15858 38880 ft 472 kts 223°
2026-04-27 16:38 0.74583 39.11314 38869 ft 472 kts 223°
2026-04-27 16:39 0.69860 39.06742 38878 ft 473 kts 223°
2026-04-27 16:39 0.65123 39.02156 38884 ft 474 kts 223°
2026-04-27 16:40 0.60404 38.97587 38880 ft 474 kts 223°
2026-04-27 16:40 0.55649 38.92985 38884 ft 475 kts 223°
2026-04-27 16:41 0.50916 38.88403 38882 ft 475 kts 223°
2026-04-27 16:41 0.46159 38.83798 38889 ft 475 kts 223°
2026-04-27 16:42 0.41442 38.79231 38894 ft 474 kts 223°
2026-04-27 16:42 0.36699 38.74640 38896 ft 474 kts 223°
2026-04-27 16:43 0.31956 38.70050 38899 ft 474 kts 223°
2026-04-27 16:43 0.27233 38.65478 38924 ft 474 kts 223°
2026-04-27 16:44 0.22481 38.60878 38911 ft 474 kts 223°
2026-04-27 16:44 0.17733 38.56282 38913 ft 475 kts 223°
2026-04-27 16:45 0.12998 38.51699 38909 ft 475 kts 223°
2026-04-27 16:45 0.08270 38.47124 38937 ft 475 kts 223°
2026-04-27 16:46 0.03508 38.42514 38916 ft 476 kts 223°
2026-04-27 16:46 -0.01260 38.37899 38946 ft 476 kts 223°
2026-04-27 16:47 -0.05994 38.33317 38949 ft 476 kts 223°
2026-04-27 16:47 -0.10755 38.28709 38930 ft 476 kts 223°
2026-04-27 16:48 -0.15530 38.24087 38964 ft 476 kts 223°
2026-04-27 16:48 -0.20271 38.19497 38966 ft 476 kts 223°
2026-04-27 16:49 -0.27396 38.12602 38978 ft 476 kts 224°
2026-04-27 16:49 -0.32156 38.07994 38992 ft 475 kts 224°
2026-04-27 16:50 -0.36915 38.03387 38983 ft 475 kts 224°
2026-04-27 16:50 -0.41650 37.98803 39017 ft 475 kts 224°
2026-04-27 16:51 -0.46406 37.94200 39014 ft 475 kts 224°
2026-04-27 16:51 -0.51123 37.89633 39036 ft 475 kts 224°
2026-04-27 16:52 -0.55868 37.85040 39036 ft 474 kts 224°
2026-04-27 16:52 -0.58250 37.82734 38726 ft 480 kts 224°
2026-04-27 16:52 -0.60676 37.80385 37902 ft 485 kts 224°
2026-04-27 16:53 -0.63077 37.78061 37120 ft 486 kts 224°
2026-04-27 16:53 -0.65512 37.75703 36248 ft 488 kts 224°
2026-04-27 16:53 -0.67966 37.73327 35328 ft 492 kts 223°
2026-04-27 16:53 -0.70445 37.70926 34387 ft 497 kts 223°
2026-04-27 16:54 -0.72942 37.68509 33291 ft 502 kts 223°
2026-04-27 16:54 -0.75466 37.66066 32146 ft 506 kts 224°
2026-04-27 16:54 -0.77971 37.63640 30998 ft 510 kts 224°
2026-04-27 16:54 -0.80523 37.61169 30129 ft 508 kts 224°
2026-04-27 16:55 -0.83063 37.58709 29213 ft 503 kts 224°
2026-04-27 16:55 -0.85568 37.56282 28370 ft 498 kts 224°
2026-04-27 16:55 -0.88044 37.53884 27613 ft 491 kts 224°
2026-04-27 16:55 -0.90469 37.51536 26883 ft 486 kts 224°
2026-04-27 16:56 -0.92884 37.49197 26159 ft 480 kts 224°
2026-04-27 16:56 -0.95273 37.46883 25425 ft 475 kts 223°
2026-04-27 16:56 -0.97642 37.44589 24710 ft 471 kts 223°
2026-04-27 16:56 -0.99963 37.42341 24011 ft 466 kts 223°
2026-04-27 16:57 -1.02283 37.40094 23241 ft 463 kts 223°
2026-04-27 16:57 -1.04583 37.37867 22460 ft 457 kts 223°
2026-04-27 16:57 -1.06852 37.35669 21782 ft 451 kts 223°
2026-04-27 16:57 -1.09097 37.33494 21109 ft 445 kts 223°
2026-04-27 16:58 -1.11305 37.31355 20471 ft 439 kts 223°
2026-04-27 16:58 -1.13484 37.29244 19825 ft 434 kts 223°
2026-04-27 16:58 -1.15647 37.27148 19160 ft 430 kts 223°
2026-04-27 16:58 -1.17757 37.25103 18532 ft 426 kts 223°
2026-04-27 16:59 -1.19888 37.23038 17826 ft 423 kts 223°
2026-04-27 16:59 -1.21986 37.21004 17159 ft 418 kts 223°
2026-04-27 16:59 -1.24066 37.18989 16527 ft 413 kts 223°
2026-04-27 16:59 -1.26122 37.16998 15904 ft 409 kts 224°
2026-04-27 17:00 -1.29262 37.13507 14887 ft 403 kts 233°
2026-04-27 17:00 -1.31419 37.10504 14069 ft 398 kts 233°
2026-04-27 17:00 -1.33037 37.08268 13392 ft 395 kts 233°
2026-04-27 17:01 -1.34653 37.06049 12761 ft 391 kts 233°
2026-04-27 17:01 -1.36248 37.03864 12148 ft 387 kts 233°
2026-04-27 17:01 -1.37809 37.01727 11537 ft 384 kts 233°
2026-04-27 17:01 -1.39386 36.99571 10970 ft 379 kts 233°
2026-04-27 17:02 -1.40903 36.97495 10797 ft 359 kts 233°
2026-04-27 17:02 -1.42345 36.95523 10701 ft 341 kts 233°
2026-04-27 17:02 -1.43711 36.93655 10591 ft 324 kts 233°
2026-04-27 17:02 -1.45011 36.91879 10490 ft 308 kts 233°
2026-04-27 17:03 -1.46232 36.90210 10395 ft 294 kts 233°
2026-04-27 17:03 -1.47417 36.88591 10203 ft 282 kts 233°
2026-04-27 17:03 -1.48524 36.87080 9913 ft 256 kts 233°
2026-04-27 17:03 -1.49523 36.85716 9705 ft 231 kts 233°
2026-04-27 17:04 -1.50372 36.84409 9330 ft 220 kts 248°
2026-04-27 17:04 -1.50518 36.82921 9087 ft 217 kts 280°
2026-04-27 17:04 -1.49928 36.81558 8927 ft 210 kts 304°
2026-04-27 17:04 -1.48901 36.80593 8741 ft 199 kts 322°
2026-04-27 17:05 -1.47765 36.79779 8610 ft 203 kts 323°
2026-04-27 17:05 -1.46615 36.78965 8454 ft 202 kts 323°
2026-04-27 17:05 -1.45479 36.78158 8305 ft 198 kts 324°
2026-04-27 17:05 -1.44684 36.77736 8170 ft 196 kts 344°
2026-04-27 17:06 -1.42986 36.78026 8009 ft 184 kts 39°
2026-04-27 17:06 -1.42139 36.78926 7890 ft 175 kts 49°
2026-04-27 17:06 -1.41367 36.79856 7733 ft 174 kts 52°
2026-04-27 17:06 -1.40644 36.80808 7604 ft 173 kts 54°
2026-04-27 17:07 -1.39937 36.81772 7473 ft 171 kts 55°
2026-04-27 17:07 -1.39243 36.82725 7350 ft 167 kts 54°
2026-04-27 17:07 -1.38569 36.83651 7237 ft 162 kts 55°
2026-04-27 17:07 -1.37901 36.84570 7032 ft 164 kts 55°
2026-04-27 17:08 -1.37232 36.85491 6836 ft 161 kts 55°
2026-04-27 17:08 -1.36598 36.86362 6643 ft 148 kts 55°
2026-04-27 17:08 -1.36003 36.87181 6459 ft 146 kts 56°
2026-04-27 17:08 -1.35409 36.88003 6305 ft 146 kts 55°
2026-04-27 17:09 -1.34816 36.88818 6091 ft 143 kts 54°
2026-04-27 17:09 -1.34231 36.89619 5892 ft 142 kts 53°
2026-04-27 17:09 -1.33652 36.90417 5680 ft 142 kts 53°
2026-04-27 17:09 -1.33077 36.91201 5514 ft 141 kts 53°
2026-04-27 17:10 -1.32497 36.91990 5351 ft 141 kts 52°
2026-04-27 17:10 -1.31959 36.92710 5334 ft 113 kts 53°
2026-04-27 17:10 -1.31605 36.93213 5303 ft 43 kts 53°
2026-04-27 17:10 -1.31615 36.93364 5305 ft 20 kts 143°
2026-04-27 17:11 -1.31670 36.93406 5306 ft 9 kts 144°
2026-04-27 17:11 -1.31813 36.93475 5310 ft 10 kts 205°
2026-04-27 17:11 -1.31863 36.93421 5308 ft 11 kts 234°
2026-04-27 17:12 -1.31955 36.93293 5310 ft 11 kts 234°
2026-04-27 17:12 -1.31999 36.93230 5312 ft 11 kts 234°
2026-04-27 17:12 -1.32048 36.93168 5314 ft 11 kts 230°
2026-04-27 17:13 -1.32094 36.93103 5317 ft 11 kts 235°
2026-04-27 17:13 -1.32140 36.93038 5318 ft 11 kts 235°
2026-04-27 17:13 -1.32185 36.92973 5318 ft 11 kts 235°
2026-04-27 17:13 -1.32234 36.92910 5320 ft 12 kts 231°
2026-04-27 17:14 -1.32284 36.92843 5320 ft 12 kts 234°
2026-04-27 17:14 -1.32317 36.92796 5327 ft 12 kts 234°
2026-04-27 17:14 -1.32386 36.92707 5334 ft 12 kts 233°
2026-04-27 17:14 -1.32437 36.92634 5335 ft 13 kts 234°
2026-04-27 17:15 -1.32495 36.92556 5334 ft 14 kts 233°
2026-04-27 17:15 -1.32555 36.92474 5334 ft 15 kts 234°
2026-04-27 17:15 -1.32614 36.92393 5334 ft 15 kts 234°
2026-04-27 17:15 -1.32655 36.92336 5334 ft 15 kts 234°
2026-04-27 17:16 -1.32739 36.92221 5335 ft 16 kts 233°
2026-04-27 17:16 -1.32782 36.92163 5337 ft 16 kts 234°
2026-04-27 17:16 -1.32846 36.92076 5337 ft 16 kts 234°
2026-04-27 17:16 -1.32909 36.91989 5338 ft 16 kts 234°
2026-04-27 17:17 -1.32973 36.91902 5341 ft 16 kts 234°
2026-04-27 17:17 -1.33037 36.91815 5338 ft 15 kts 234°
2026-04-27 17:17 -1.33104 36.91722 5332 ft 13 kts 234°
2026-04-27 17:18 -1.33173 36.91651 5334 ft 7 kts 213°
2026-04-27 17:18 -1.33214 36.91616 5331 ft 8 kts 227°
2026-04-27 17:18 -1.33268 36.91609 5334 ft 9 kts 148°
2026-04-27 17:18 -1.33300 36.91642 5334 ft 3 kts 139°
2026-04-27 17:19 -1.33311 36.91651 5335 ft 2 kts 141°
2026-04-27 17:19 -1.33313 36.91653 5335 ft 0 kts 141°